sat.trackr.live / text

‹ back to catalog

STARLINK-11514 [DTC]

NORAD 62514 · 2025-004D

PAYLOAD ACTIVE UNKNOWN

§ Identity

Operator
Country
US
Launch date
2025-01-08
Launch site
AFETR
Launch vehicle
Mass (kg)
RCS (m²)

Purposes: comms

External: N2YO · Heavens-Above · Gunter

§ Orbital elements

Epoch: 2026-09-21T11:43:23.609280Z

Period
91.67 min
Inclination
42.9997°
Eccentricity
0.0000805
Mean motion
15.70883881 rev/d
Perigee alt
355.8 km
Apogee alt
356.9 km
Semi-major
6,734.5 km
B*
1.4330e-3
RAAN
330.4260°
Arg perigee
229.7179°
Mean anomaly
130.3618°
Rev number
9,800

§ Raw data

STARLINK-11514 [DTC]1 62514U 25004D   26264.48846770  .00187984  00000+0  14330-2 0  99922 62514  42.9997 330.4260 0000805 229.7179 130.3618 15.70883881 98006

JSON: /api/v1/satellites/62514 · /tle

For live sub-satellite position, see the globe view (requires WebGL).

§ Visibility from observer

Set your observer location to see the next 7 days of passes ≥ 10°. The values pass through the URL so the page stays shareable.

No JS? Fill the form by hand. The geolocation button needs JavaScript.